Theta_e
315 315 314 313 310 308 307 305 305 304 299 294 293 294 295 294 294 294 294 294 293 293 292 291 291 290 289
316 314 312 311 309 308 306 305 303 300 294 293 293 293 292 292 293 293 293 293 292 291 291 290 290 289 288
315 313 311 308 306 305 304 303 300 295 293 293 292 291 291 292 292 292 292 291 291 290 290 290 289 288 286
315 310 308 306 303 301 301 298 295 293 293 293 291 290 290 291 292 291 291 290 290 290 289 289 287 286 285
315 310 306 304 304 301 298 297 293 292 292 292 292 290 290 291 291 291 290 289 289 289 288 287 286 285 285
317 311 311 308 302 301 299 295 293 294 292 292 292 290 289 290 290 290 289 289 289 288 287 285 284 284 284
316 315 309 305 304 302 300 297 297 295 295 292 291 290 289 290 289 289 289 288 288 286 285 284 284 284 284
312 306 305 302 302 303 301 298 294 293 292 291 292 290 288 289 291 289 288 288 287 285 284 283 283 283 283
310 306 300 300 299 299 299 296 293 294 290 291 290 288 291 293 291 288 288 287 286 285 283 283 283 283 283
308 304 302 299 297 298 297 297 296 293 292 290 288 290 291 291 287 287 288 287 284 283 283 282 282 282 282
305 302 300 298 297 297 297 297 296 294 293 291 291 291 289 287 287 287 285 283 283 282 281 281 281 281 281
300 300 299 296 296 296 296 294 292 292 291 291 290 288 286 287 287 285 284 282 281 281 280 280 280 280 280
299 298 297 297 295 294 292 290 288 288 289 288 286 286 287 285 284 283 282 281 280 280 280 280 280 279 280
298 297 295 294 293 292 291 288 288 288 286 286 285 285 284 284 283 283 281 280 280 279 279 280 280 279 279
294 294 292 291 290 289 289 288 288 287 286 285 284 284 284 283 283 282 280 280 279 279 279 279 279 279 279
292 292 291 290 289 288 288 288 286 286 286 284 284 284 283 283 282 282 280 280 279 279 279 279 279 279 279
291 290 289 289 288 288 287 286 286 284 284 283 283 283 282 282 282 281 281 280 279 279 279 278 278 278 278
Wind_Speed
29 30 31 31 31 31 29 27 24 23 22 21 19 18 17 16 14 13 13 12 11 11 10 11 11 11 12
29 30 32 31 31 31 30 28 26 24 22 23 21 19 18 16 15 14 14 13 12 12 12 12 13 13 14
32 30 30 32 32 33 31 29 27 25 25 23 21 20 19 17 16 15 14 14 14 14 13 14 15 15 15
34 32 31 33 34 34 34 32 30 28 28 22 22 21 20 18 17 16 15 15 14 14 15 15 15 15 15
37 37 33 35 38 37 34 31 30 30 26 24 22 22 21 19 17 16 16 15 15 16 16 16 16 16 16
43 42 40 39 39 39 36 34 33 33 29 25 25 23 21 19 17 16 16 16 16 16 17 17 17 17 16
43 42 42 40 40 39 37 36 36 29 27 28 26 22 21 20 17 17 18 17 17 17 17 18 18 18 18
39 38 36 34 33 32 33 34 33 28 26 26 26 24 22 18 19 20 19 18 18 17 18 19 19 17 20
43 40 35 33 30 33 36 35 36 35 33 29 23 23 24 24 19 22 19 19 20 18 20 20 19 20 22
42 39 37 35 33 33 34 37 38 34 34 30 28 27 21 19 21 21 20 22 21 18 18 20 21 22 22
37 35 33 33 33 34 33 33 34 35 25 30 27 24 17 11 12 15 19 18 19 20 22 22 21 23 24
37 35 34 34 32 31 30 29 27 23 21 17 21 19 19 20 21 20 18 18 20 21 22 22 22 24 22
39 37 35 32 31 30 30 26 24 22 20 18 17 18 19 20 19 19 19 18 21 21 22 19 18 22 23
40 37 33 32 32 30 30 30 29 26 23 21 20 19 19 19 18 19 17 16 16 17 20 20 19 20 21
39 36 35 33 31 30 30 31 30 26 22 19 18 18 19 18 18 16 16 19 18 19 20 20 18 19 21
36 35 36 35 33 32 30 29 25 23 20 19 18 18 18 17 17 15 16 17 16 18 19 21 22 20 23
33 34 35 34 34 33 30 27 23 21 20 18 17 17 17 18 15 15 16 15 15 16 18 21 25 24 24
Wind_Direction
235 237 236 235 235 233 234 240 243 241 238 245 247 248 249 250 254 259 265 266 267 269 272 277 286 294 300
241 235 234 233 234 235 237 239 239 240 240 238 240 242 242 247 253 257 260 262 262 264 270 276 283 290 292
243 239 236 232 228 228 231 233 233 235 237 237 237 238 241 245 249 253 253 255 257 262 268 276 285 288 288
238 240 234 229 227 227 223 224 225 229 234 235 234 234 238 243 246 248 251 255 261 268 275 282 286 287 286
232 233 229 226 231 225 223 227 226 230 233 232 236 238 241 244 247 250 254 258 264 274 281 284 286 286 287
237 232 236 233 227 225 223 217 219 229 228 232 237 238 241 246 247 250 255 263 271 277 279 282 284 284 281
240 236 238 235 231 225 226 226 230 228 230 231 234 238 242 242 249 258 261 266 272 277 277 279 279 278 279
235 240 242 243 241 243 234 229 229 230 230 228 234 235 234 236 244 255 260 267 272 276 276 274 276 274 281
232 229 228 233 230 226 226 221 221 229 224 233 229 222 229 238 241 254 261 270 279 275 269 269 269 275 281
227 228 228 223 224 229 230 225 227 227 226 220 219 230 234 234 244 252 266 268 266 265 263 272 280 282 284
225 223 221 222 220 223 226 231 231 227 230 225 227 226 215 227 231 242 249 255 262 265 271 276 278 282 284
216 216 217 218 222 224 225 223 222 230 233 219 219 222 228 241 250 254 258 261 265 267 271 276 277 279 281
214 216 218 220 217 211 209 209 210 217 211 211 223 232 242 245 251 257 263 268 269 272 276 273 274 280 283
214 213 211 207 206 207 203 204 206 205 209 218 226 234 241 247 253 261 269 264 269 271 272 275 280 285 289
211 204 199 199 201 203 204 201 203 202 208 219 228 235 245 253 260 267 267 268 275 276 278 280 280 282 286
206 202 198 197 196 196 198 198 197 205 209 217 228 238 247 257 267 271 267 269 269 275 280 287 289 290 293
205 202 199 196 194 196 194 198 200 202 211 220 232 243 254 263 274 273 270 270 268 270 276 283 292 296 299